WEINA 2 (47303 NORAD) Tracking and Keplerian Element Data
This shows tracking and keplerian element data for the satellite.
Feedback or suggestion? Click here.
Element | Value |
Catalog | 47303 |
Name | WEINA 2 |
Epoch Orbit | 268 |
Epoch Day | 14.98949394 |
Epoch Year | 2021 |
RAAN | 264.9063 |
Inclination | 98.272 |
Eccentricity | 0.0001572 |
Argument of Perigee | 83.2437 |
Mean Anonmoly | 276.9005 |
Mean Motion | 14.59105243 |
Decay Rate | 5.067E-05 |
L1 | 1 47303U 20103B 21014.98949394 .00005067 00000-0 10862-2 0 9993 |
L2 | 2 47303 98.2720 264.9063 0001572 83.2437 276.9005 14.59105243 2688 |
Live tracking and technical data element details for WEINA 2 (NORAD 47303). WEINA 2 can be tracked NOW for your location showing map with azimuth and elevation plus other details from your city location.
Track the satellite on the map from your city or location and see movement details for azimuth, elevation, latitude, longitude, range, height, and movement on the map or in text.
IsCatalogInMostPopularTable: catalog: 47303, numindb: 6
Update: records affected: 1
GetName: 47303 WEINA 2
Hit Count: updated at: Sun, 17 Jan 2021 09:12:31 GMT